Charlottetown, Prince Edward Island

9:06 AM ADT on July 28, 2017 (GMT -0300)
Charlottetown

Weather History for CYYG - July, 2013

Change the Weather History Date:

Thursday, July 4, 2013

  Actual Average Record
Temperature  
Mean Temperature 74 °F -  
Max Temperature 86 °F 74 °F 86 °F (2013)
Min Temperature 61 °F 56 °F 50 °F (2007)
Cooling Degree Days 8    
Growing Degree Days 24 (Base 50)    
Moisture  
Dew Point 64 °F    
Average Humidity 73    
Maximum Humidity 94    
Minimum Humidity 40    
Precipitation  
Precipitation 0.00 in 0.11 in - ()
Sea Level Pressure  
Sea Level Pressure 29.99 in    
Wind  
Wind Speed 9 mph ()    
Max Wind Speed 15 mph    
Max Gust Speed 20 mph    
Visibility 12.8 miles    
Events      
Averages and records for this station are not official NWS values.
T = Trace of Precipitation, MM = Missing Value Source: Averaged Metar Reports

Daily Weather History Graph

Daily Weather History Graph

Search for Another Location

Airport or City:

Trip Planner

Search our weather history database for the weather conditions in past years. The results will help you decide how hot, cold, wet, or windy it might be!

Date:

Astronomy

Jul. 04, 2013 Rise Set
Actual Time 5:26 AM ADT 9:07 PM ADT
Civil Twilight 4:48 AM ADT 9:45 PM ADT
Nautical Twilight 3:56 AM ADT 10:36 PM ADT
Astronomical Twilight 2:45 AM ADT 11:47 PM ADT
Moon 2:45 AM ADT (7/4) 6:03 PM ADT (7/4)
Length of Visible Light 16h 57m
Length of Day
15h 40m
Waning Crescent, 12% of the Moon is Illuminated
Jul 4
Waning Crescent
Jul 8
New
Jul 16
First Quarter
Jul 22
Full
Jul 29
Last Quarter

Hourly Weather History & Observations

Time (ADT) Temp. Heat Index Dew Point Humidity Pressure Visibility Wind Dir Wind Speed Gust Speed Precip Events Conditions
12:00 AM 64.4 °F - 60.8 °F 88% 30.05 in 12.0 mi SW 10.4 mph - N/A   Scattered Clouds
1:00 AM 62.6 °F - 60.8 °F 94% 30.04 in 8.0 mi SW 13.8 mph - N/A   Scattered Clouds
2:00 AM 62.6 °F - 60.8 °F 94% 30.04 in 8.0 mi WSW 12.7 mph - N/A   Scattered Clouds
3:00 AM 62 °F - 60 °F 93% 30.02 in 7 mi SW 9.2 mph - -   Scattered Clouds
3:00 AM 62.6 °F - 60.8 °F 94% 30.01 in 8.0 mi SW 9.2 mph - N/A   Partly Cloudy
4:00 AM 62.6 °F - 60.8 °F 94% 30.01 in 10.0 mi WSW 9.2 mph - N/A   Scattered Clouds
5:00 AM 64.4 °F - 62.6 °F 94% 30.01 in 10.0 mi WSW 9.2 mph - N/A   Scattered Clouds
6:00 AM 64.4 °F - 62.6 °F 94% 30.01 in 10.0 mi WSW 9.2 mph - N/A   Mostly Cloudy
7:00 AM 66.2 °F - 64.4 °F 94% 30.01 in 10.0 mi WSW 9.2 mph - N/A   Mostly Cloudy
8:00 AM 68.0 °F - 64.4 °F 88% 30.01 in 15.0 mi West 13.8 mph - N/A   Mostly Cloudy
9:00 AM 71 °F - 66 °F 78% 30.01 in 15 mi West 12.7 mph - -   Scattered Clouds
9:00 AM 71.6 °F - 66.2 °F 83% 30.01 in 15.0 mi West 15.0 mph - N/A   Mostly Cloudy
10:00 AM 73.4 °F - 66.2 °F 78% 30.01 in 15.0 mi West 8.1 mph - N/A   Mostly Cloudy
11:00 AM 77.0 °F - 68.0 °F 74% 30.01 in 15.0 mi West 6.9 mph - N/A   Scattered Clouds
12:00 PM 78.8 °F - 66.2 °F 65% 30.00 in 15.0 mi WSW 8.1 mph - N/A   Scattered Clouds
1:00 PM 80.6 °F 83.2 °F 68.0 °F 65% 30.00 in 15.0 mi WSW 11.5 mph - N/A   Scattered Clouds
2:00 PM 82.4 °F 83.9 °F 64.4 °F 54% 29.99 in 15.0 mi West 11.5 mph - N/A   Mostly Cloudy
3:00 PM 83 °F - 64 °F 44% 29.98 in 15 mi West 11.5 mph - -   Scattered Clouds
3:00 PM 84.2 °F 85.6 °F 64.4 °F 51% 29.98 in 15.0 mi West 12.7 mph - N/A   Mostly Cloudy
4:00 PM 84.2 °F 85.0 °F 62.6 °F 48% 29.97 in 15.0 mi West 13.8 mph 19.6 mph N/A   Mostly Cloudy
5:00 PM 86.0 °F 85.4 °F 59.0 °F 40% 29.96 in 15.0 mi West 10.4 mph - N/A   Mostly Cloudy
6:00 PM 86.0 °F 85.4 °F 59.0 °F 40% 29.95 in 15.0 mi West 8.1 mph - N/A   Mostly Cloudy
7:00 PM 82.4 °F 83.9 °F 64.4 °F 54% 29.95 in 15.0 mi SW 10.4 mph - N/A   Mostly Cloudy
8:00 PM 78.8 °F - 66.2 °F 65% 29.96 in 15.0 mi SW 11.5 mph - N/A   Mostly Cloudy
9:00 PM 75 °F - 66 °F 66% 29.96 in 12 mi SW 5.8 mph - -   Clear
9:00 PM 75.2 °F - 66.2 °F 73% 29.96 in 12.0 mi SW 5.8 mph - N/A   Scattered Clouds
10:00 PM 73.4 °F - 64.4 °F 73% 29.97 in 12.0 mi WSW 8.1 mph - N/A   Scattered Clouds
11:00 PM 73.4 °F - 64.4 °F 73% 29.96 in 15.0 mi WSW 10.4 mph - N/A   Scattered Clouds